Regional Weather Roundup
Issued by NWS

Home | Current Version | Previous Version | Text Only | Print | Product List | Glossary On
Versions: 1 2 3 4 5 6 7 8 9 10 11 12 13 14 15 16 17 18 19 20 21 22 23 24 25 26 27 28 29 30 31 32 33 34 35 36 37 38 39 40 41 42 43 44 45 46 47 48 49 50
000
ASUS43 KTOP 292059
RWRKS

WEATHER ROUNDUP FOR KANSAS
NATIONAL WEATHER SERVICE GOODLAND KS
400 PM CDT MON AUG 29 2016

NOTE:  "FAIR" INDICATES FEW OR NO CLOUDS BELOW 12,000 FEET WITH NO
SIGNIFICANT WEATHER AND/OR OBSTRUCTIONS TO VISIBILITY.

KSZ001>006-013>018-027>032-041>047-292200-
NORTHWEST KANSAS

CITY           SKY/WX    TMP DP  RH WIND       PRES   REMARKS
GOODLAND       CLOUDY    74  61  63 S13       30.24F
HAYS           CLOUDY    81  63  54 NE7       30.16S
HILL CITY      LGT RAIN  75  70  84 NW5       30.18F
RUSSELL        TSTM      69  65  86 E20G32    30.19R FOG
$$

KSZ061>065-074>080-084>089-292200-
SOUTHWEST KANSAS

CITY           SKY/WX    TMP DP  RH WIND       PRES   REMARKS
DODGE CITY     CLOUDY    75  68  78 W6        30.18F
ELKHART          N/A     71  63  76 SE3         N/A
GARDEN CITY    PTSUNNY   75  63  66 S5        30.19F
GREAT BEND     CLOUDY    75  64  69 SE10      30.15R
LIBERAL        CLOUDY    72  64  78 SW3       30.21F
$$

KSZ066>073-081>083-090>101-292200-
SOUTHEAST KANSAS

CITY           SKY/WX    TMP DP  RH WIND       PRES   REMARKS
CHANUTE        PTSUNNY   87  72  60 CALM      30.11F
COFFEYVILLE    SUNNY     89  71  55 VRB3      30.09F HX  95
HUTCHINSON     MOSUNNY   88  67  49 SE9       30.13F
MEDICINE LODGE   N/A     84  66  54 SE7       30.11S
NEWTON         MOSUNNY   86  70  58 SE8       30.13F
PARSONS        MOSUNNY   89  70  53 CALM      30.11F
WICHITA INTL   PTSUNNY   87  71  58 SE13      30.11F
WICHITA JABRA  MOSUNNY   84  71  65 SE10      30.12F
WINFIELD       MOSUNNY   85  66  53 SE9       30.12F
$$

KSZ007>012-019>026-033>040-048>060-102>105-292200-
NORTHEAST KANSAS

CITY           SKY/WX    TMP DP  RH WIND       PRES   REMARKS
CONCORDIA      CLOUDY    80  67  64 S12       30.14F
EMPORIA        MOSUNNY   74  69  85 S8        30.13F
LAWRENCE       SUNNY     90  69  50 SE12      30.11F
MANHATTAN      MOSUNNY   89  70  53 SE9       30.10F
OLATHE IND     MOSUNNY   88  71  57 VRB6      30.13F
OLATHE EXE     MOSUNNY   86  69  56 E6        30.13F
SALINA         LGT RAIN  74  69  85 NW7       30.14S
TOPEKA BILLARD SUNNY     88  69  53 SE9       30.11F
TOPEKA FORBES  MOSUNNY   91  69  48 SE6       30.12F HX  96
$$



USA.gov is the U.S. government's official web portal to all federal, state and local government web resources and services.